Regional Weather Roundup
Issued by NWS

Home | Current Version | Previous Version | Graphics & Text | Print | Product List | Glossary On
Versions: 1 2 3 4 5 6 7 8 9 10 11 12 13 14 15 16 17 18 19 20 21 22 23 24 25 26 27 28 29 30 31 32 33 34 35 36 37 38 39 40 41 42 43 44 45 46 47 48 49 50
000
ASUS43 KIND 081509
RWRIN

WEATHER ROUNDUP FOR INDIANA
NATIONAL WEATHER SERVICE INDIANAPOLIS IN
1000 AM EST MON FEB 08 2016

NOTE: "FAIR" INDICATES FEW OR NO CLOUDS BELOW 12,000 FEET WITH NO
SIGNIFICANT WEATHER AND/OR OBSTRUCTIONS TO VISIBILITY.

* - STATION DOES NOT REPORT WEATHER SUCH AS PRECIPITATION OR FOG.

+ - STATION NOT QUALITY CONTROLLED BY THE NATIONAL WEATHER SERVICE.
    USE DATA WITH CAUTION...ESPECIALLY DEWPOINT AND RELATIVE
    HUMIDITY OBSERVATIONS.

INZ001>003-010>013-019-020-081600-
NORTHWEST INDIANA

CITY           SKY/WX    TMP DP  RH WIND       PRES   REMARKS
GARY /AIRPORT/ CLOUDY    34  28  80 W14       29.65R WCI  24
LA PORTE +     CLOUDY    33  33 100 SW6       29.64S WCI  27
MICHIGAN CITY+ CLOUDY    32  32 100 SW5       29.65R WCI  27
MONTICELLO +   CLOUDY    32  27  80 SW3       29.65F
RENSSELAER +   MIX PCPN  32  30  93 W13       29.66S WCI  22
VALPARAISO     CLOUDY    32  30  92 SW7       29.64S WCI  26

$$

LMZ046-743>745-081600-
SOUTHERN LAKE MICHIGAN

STATION/POSITION TIME  TEMP    WIND        PRES    WAVE
                       AIR SEA DIR/SP/G            HT
                 (UTC) (F)     (DEG/KT/KT) (MB)    (FT)
BURNS HARBOR     1400   33     230/ 10/ 12 1004.4R
MICHIGAN CITY    1400   31     200/  8/ 10   N/A

$$

INZ004-005-014>016-021>024-081600-
NORTH CENTRAL INDIANA

CITY           SKY/WX    TMP DP  RH WIND       PRES   REMARKS
ELKHART          N/A     30  28  93 SW5       29.64R WCI  25
GOSHEN         CLOUDY    32  28  85 SW6       29.63S WCI  26
LOGANSPORT +   PTSUNNY   34  28  80 SW8       29.66S WCI  27
PERU/GRISSOM   CLOUDY    34  30  86 W9        29.63S WCI  26
ROCHESTER +    MOSUNNY   36  28  75 SW6       29.65S
SOUTH BEND     CLOUDY    31  28  89 SW7       29.64R WCI  24
WARSAW +       CLOUDY    32  30  93 W3        29.64S

$$

INZ006>009-017-018-025>027-081600-
NORTHEAST INDIANA

CITY           SKY/WX    TMP DP  RH WIND       PRES   REMARKS
ANGOLA *+      MOSUNNY   34  30  86 W5        29.61F WCI  30
AUBURN +       CLOUDY    34  30  86 W8        29.63S WCI  27
FORT WAYNE     PTSUNNY   33  29  85 W9        29.64F WCI  25
HUNTINGTON +   CLOUDY    33  29  85 W7        29.64S WCI  27

$$

INZ028-029-035-036-043>045-051>053-081600-
WEST CENTRAL INDIANA

CITY           SKY/WX    TMP DP  RH WIND       PRES   REMARKS
GREENCASTLE +  LGT SNOW  32  28  86 W5        29.68S WCI  27
LAFAYETTE      CLOUDY    32  28  85 SW7       29.67S WCI  26
TERRE HAUTE    SNOW      33  31  92 SW5       29.70S VSB 1/2 WCI  29

$$

INZ030>032-037>040-046>048-054>057-064-065-081600-
CENTRAL INDIANA

CITY           SKY/WX    TMP DP  RH WIND       PRES   REMARKS
COLUMBUS       CLOUDY    34  34 100 CALM      29.68
FISHERS *+     CLOUDY    32  32 100 W8        29.67S WCI  25
FRANKFORT +    CLOUDY    33  31  94 W8        29.68R WCI  25
GREENWOOD *+   CLOUDY    34  34 100 W7        29.67F WCI  28
INDIANAPOLIS   FLURRIES  35  31  85 W13       29.66  WCI  26
-EAGLE CREEK   CLOUDY    34  31  88 NW9       29.66S WCI  27
KOKOMO *+        N/A     36  28  75 W12       29.65S
MARION +       CLOUDY    32  27  82 SW5       29.65S WCI  28
MT COMFORT *+  CLOUDY    32  32 100 W6        29.67S WCI  26
SHELBYVILLE    CLOUDY    35  32  88 W6        29.66S WCI  30
ZIONSVILLE +   CLOUDY    32  30  93 W8        29.67S WCI  25

$$

INZ033-034-041-042-049-050-058-059-081600-
EAST CENTRAL INDIANA

CITY           SKY/WX    TMP DP  RH WIND       PRES   REMARKS
MUNCIE         CLOUDY    35  31  85 W5        29.64F WCI  31

$$

INZ060-061-067>069-081>083-085>088-081600-
SOUTHWEST INDIANA

CITY           SKY/WX    TMP DP  RH WIND       PRES   REMARKS
EVANSVILLE     CLOUDY    37  32  82 W9        29.77R
HUNTINGBURG *+ PTSUNNY   36  32  87 W12       29.74S
WASHINGTON +   CLOUDY    35  34  96 W9        29.72S WCI  28

$$

INZ062-063-066-070>080-084-089>092-081600-
SOUTH CENTRAL AND SOUTHEAST INDIANA

CITY           SKY/WX    TMP DP  RH WIND       PRES   REMARKS
BEDFORD +      LGT SNOW  34  34 100 CALM      29.70R
BLOOMINGTON    FLURRIES  35  32  88 W8        29.68S WCI  29
MADISON *+     CLOUDY    36  32  87 SW7       29.69F
NORTH VERNON + CLOUDY    37  37 100 CALM      29.68S
SEYMOUR +      LGT RAIN  36  34  93 W9        29.69S

$$




USA.gov is the U.S. government's official web portal to all federal, state and local government web resources and services.